RH
20 13 7 6 6 7 8 10 12 15 18 22 25 27 29 30 29 29 29 29 29 29 29 28 27 26 26 25 25 24 23 24 24 23 23 22 20 19 19 19 19 18 18 18 19 21 22 24 26 27 29 30 29 28 29 23 18 17 14 24 41 49 50 48 47 47 49 50 47 45 42 39 35 27 23 22 22 22 21 22 20 19 20 21 21 24 33 40
14 8 6 7 11 16 20 24 26 29 30 30 30 30 30 30 30 30 29 29 28 27 25 24 23 22 22 22 23 22 22 23 20 19 20 19 18 18 19 19 19 19 20 21 22 23 24 25 25 26 29 30 30 30 30 29 27 23 21 27 34 40 49 49 46 49 51 50 47 43 33 26 25 22 23 25 25 25 25 24 22 23 22 21 22 25 32 39
7 6 7 11 19 26 30 33 33 33 32 31 31 31 31 31 31 29 29 28 26 24 22 20 19 19 19 19 21 20 21 22 18 18 20 19 20 21 23 23 24 25 25 25 27 27 27 28 26 26 27 28 32 33 30 32 31 28 29 38 47 48 51 50 47 47 49 52 51 44 31 24 24 24 25 27 26 25 26 25 24 24 24 24 23 24 30 39
5 6 9 17 26 30 33 33 33 33 32 32 31 31 31 31 30 29 28 26 23 20 17 17 17 18 20 21 22 23 23 25 23 23 25 24 26 28 28 28 27 27 26 27 27 27 28 28 29 29 29 28 32 36 33 32 32 34 37 42 47 48 50 51 47 44 43 46 45 37 28 24 25 25 25 27 27 26 24 22 22 23 23 24 24 24 28 36
6 11 18 26 31 33 34 34 34 32 32 32 32 32 32 31 30 28 25 21 17 16 17 19 21 23 25 26 28 29 30 30 29 28 29 30 31 31 28 26 23 22 22 22 23 24 26 28 29 29 30 29 30 34 34 33 34 35 41 46 43 38 39 40 40 39 37 35 32 27 25 23 22 22 23 24 25 24 21 19 20 20 20 21 22 24 26 33
14 21 28 33 34 35 35 34 34 33 33 33 33 33 31 31 28 23 18 15 16 18 21 22 24 25 26 27 28 30 31 32 31 29 29 29 28 26 22 18 16 16 16 16 16 17 20 24 27 28 30 29 28 30 30 32 35 33 33 37 37 32 31 29 28 29 27 25 24 23 22 21 20 20 20 20 21 21 19 19 18 18 18 19 21 22 25 30
23 30 33 34 35 36 35 34 34 33 34 33 34 33 30 28 21 17 15 16 18 20 22 22 23 25 24 26 27 28 29 29 28 26 25 23 22 19 18 15 12 12 12 12 12 12 14 16 20 23 26 26 26 27 27 29 33 31 29 29 29 30 29 26 24 23 22 21 20 20 19 19 18 18 18 18 18 18 18 19 18 19 19 20 21 23 25 28
30 33 34 35 35 35 34 34 34 34 35 33 32 28 24 19 15 15 16 16 16 18 21 19 21 24 24 25 25 25 25 26 24 21 19 16 15 16 17 14 10 9 9 9 10 11 12 12 15 19 22 24 25 26 26 27 29 27 27 27 25 26 25 24 23 21 20 19 18 18 17 18 18 17 18 17 18 18 19 20 20 21 21 23 24 25 26 29
34 35 35 35 34 34 34 35 35 33 30 26 22 18 16 14 14 15 13 11 11 16 18 16 19 22 23 23 22 25 27 26 20 16 15 12 10 11 12 11 8 7 7 7 9 10 11 12 14 15 18 21 23 24 24 24 26 28 28 27 25 26 25 24 23 21 21 20 19 19 18 18 19 20 20 17 17 19 20 20 21 22 23 24 25 27 28 29
36 35 35 34 34 35 34 32 28 23 18 14 12 10 12 13 14 12 9 8 8 13 15 15 18 21 23 22 20 25 27 23 19 19 18 12 7 8 8 8 7 7 7 8 8 10 11 12 13 13 14 17 19 19 19 20 22 25 27 27 26 25 24 23 22 21 21 20 20 20 20 19 19 19 18 15 16 18 19 20 20 21 21 22 23 25 26 27
35 34 35 34 33 31 26 22 17 15 12 8 7 9 14 14 12 10 8 6 6 10 15 17 20 21 22 20 18 21 21 19 21 21 17 10 7 8 8 7 7 7 7 8 8 9 10 10 12 13 13 15 18 15 15 16 17 19 21 23 23 22 22 21 20 19 19 19 19 20 19 17 16 17 18 18 20 20 20 20 20 21 20 21 21 22 22 23
35 33 32 29 25 21 18 17 18 19 15 11 11 14 14 12 12 11 7 5 6 11 18 20 19 18 15 13 15 17 16 17 18 16 12 9 8 8 7 7 7 7 7 8 8 8 9 9 10 11 13 16 17 16 17 17 16 16 18 20 20 18 19 18 19 22 22 21 20 21 20 18 19 22 24 26 27 26 25 24 23 24 24 25 25 25 25 25
32 28 23 20 18 17 19 22 25 25 23 20 18 15 12 12 14 11 6 5 7 13 19 18 14 13 11 11 13 14 13 13 13 10 9 8 8 8 7 7 7 7 8 7 8 8 8 9 10 10 12 14 15 16 18 18 17 16 16 20 21 22 26 27 29 32 31 28 28 28 25 20 21 23 25 26 27 27 25 23 22 22 23 25 27 28 29 29
23 20 18 19 20 20 22 24 25 25 23 21 16 12 11 13 13 8 6 6 8 14 18 16 14 12 11 13 13 12 11 10 9 8 8 7 7 7 8 8 8 7 8 8 8 9 9 9 10 12 13 14 16 16 16 16 16 19 21 22 23 27 34 35 35 36 35 33 30 30 26 21 24 27 26 27 25 24 22 19 18 18 18 20 22 23 25 27
18 19 20 22 20 20 21 20 21 20 18 17 14 13 13 12 10 6 6 6 8 13 15 15 13 11 11 13 12 10 10 9 8 7 7 7 7 8 8 7 7 7 8 8 8 8 9 10 10 13 13 15 17 15 21 30 30 29 32 31 29 33 36 36 35 34 35 33 29 28 24 21 26 27 25 24 22 20 19 17 15 14 14 15 17 18 20 21
19 22 21 20 17 17 16 15 14 14 14 13 12 12 10 8 7 6 6 7 9 11 13 14 11 10 14 14 11 10 10 8 7 7 7 7 7 7 6 6 6 7 8 8 8 8 9 11 12 14 14 19 23 21 29 41 41 38 41 37 31 33 35 33 31 32 32 31 27 23 18 14 15 14 13 13 13 13 12 11 10 10 10 11 13 14 15 17
21 21 19 16 13 11 10 9 8 8 8 8 8 7 6 6 6 6 8 9 9 11 13 12 9 13 19 16 10 9 8 6 6 7 6 6 6 6 5 5 5 7 7 7 8 9 9 10 14 21 25 29 28 27 34 40 40 41 43 40 32 32 33 28 29 33 33 30 25 17 12 8 6 7 7 7 8 8 6 6 7 6 6 7 8 10 11 12
20 19 15 12 9 7 7 6 6 6 6 6 6 5 5 6 6 7 8 9 10 12 13 11 9 17 24 16 8 7 6 5 6 6 6 5 5 5 5 5 7 7 6 10 14 14 12 12 20 31 35 35 25 21 33 42 40 36 35 34 27 25 24 21 26 32 32 27 18 10 8 5 4 9 10 8 8 5 3 5 5 5 5 5 6 7 8 9
19 16 12 9 8 7 6 5 6 6 6 6 5 5 6 6 8 9 9 9 10 11 12 11 10 14 18 11 6 6 4 5 6 5 5 5 5 4 5 6 7 5 6 20 27 17 12 19 34 41 36 32 21 13 20 27 26 21 20 20 16 16 18 20 25 26 22 17 9 5 6 4 2 7 10 7 5 4 4 4 4 5 5 5 6 6 6 8
17 13 11 10 9 7 5 5 5 5 6 6 6 6 6 7 10 11 9 10 11 11 11 12 11 10 10 7 5 5 4 5 5 4 4 4 4 4 5 5 6 11 12 18 22 10 10 25 34 32 25 19 15 12 13 14 14 13 12 14 16 21 24 28 31 24 15 10 5 4 5 4 3 4 7 7 3 3 3 4 3 4 4 4 4 5 5 5
16 12 12 12 11 8 5 5 5 5 6 6 6 6 6 6 10 13 11 10 12 12 13 13 10 9 8 5 5 4 4 5 4 4 4 3 4 4 6 4 10 26 21 9 13 17 20 28 25 17 14 13 11 12 11 9 10 9 9 16 21 27 28 29 30 21 12 9 4 7 9 4 4 5 6 7 3 2 2 2 3 2 3 3 2 3 3 3
15 12 13 14 13 10 6 5 5 5 5 5 5 6 7 7 9 11 9 11 13 12 13 12 8 8 7 5 4 3 3 5 5 4 3 3 4 3 6 4 8 20 14 5 18 33 34 31 22 12 11 12 10 10 8 7 11 13 15 21 22 23 23 18 16 12 9 6 4 16 17 3 3 6 4 5 1 2 3 1 2 2 2 2 2 3 2 2
14 12 15 15 15 12 7 5 5 5 5 5 5 5 6 6 7 9 9 11 13 11 13 10 7 8 6 5 4 3 4 7 6 4 3 3 3 3 5 5 5 7 6 4 13 28 36 30 18 9 8 9 7 7 6 7 19 30 30 28 22 18 17 11 7 7 7 7 16 32 22 4 9 10 4 5 2 1 3 1 2 2 2 2 2 2 2 2
14 12 15 15 15 13 8 6 5 5 5 4 5 5 6 6 7 8 10 11 11 11 12 9 7 8 6 5 4 2 6 8 5 3 3 3 3 5 4 4 5 4 5 5 6 14 23 20 10 7 10 9 6 6 6 7 21 36 35 28 25 20 17 12 7 6 3 11 32 40 21 7 14 12 4 5 4 2 2 2 2 1 1 2 2 2 2 2
13 13 15 15 15 13 8 6 5 6 5 5 6 5 6 7 7 8 9 14 18 15 11 9 9 9 6 4 2 4 10 9 3 3 4 3 4 5 4 5 4 4 4 5 10 11 9 10 7 9 12 6 9 15 12 8 12 24 29 26 24 20 14 10 7 7 8 17 31 31 26 19 10 6 6 6 6 4 2 2 3 2 2 2 2 2 2 2
12 12 15 15 16 14 8 6 7 6 6 6 6 5 7 6 7 9 9 19 30 23 11 9 9 8 6 3 1 6 12 8 3 3 3 3 4 4 4 4 2 5 3 6 22 18 5 8 8 11 11 6 21 31 18 9 6 13 22 21 17 13 9 6 6 9 13 21 23 21 32 32 11 3 8 9 8 7 4 3 3 3 4 3 2 2 2 3
12 12 14 14 16 14 8 7 7 6 6 7 6 6 6 7 8 9 13 29 35 21 9 8 8 7 5 3 3 5 8 6 3 4 3 3 4 3 4 3 2 5 1 8 32 24 4 7 9 11 9 8 28 33 15 7 7 9 13 11 8 6 5 7 8 10 15 24 24 19 31 40 25 9 6 8 9 8 5 3 3 3 4 4 3 3 2 2
13 12 13 14 16 14 8 7 7 7 7 6 6 7 6 8 9 9 24 41 29 11 8 8 7 7 3 3 4 3 3 4 4 4 3 3 4 3 4 3 2 5 1 5 20 14 3 7 9 10 8 8 17 15 6 6 6 5 6 5 5 5 8 11 12 12 20 34 30 22 33 44 31 10 5 9 7 7 8 4 4 4 4 4 4 3 3 2
14 11 12 13 16 14 9 7 7 6 6 6 6 7 7 9 10 15 32 40 20 6 8 7 6 6 3 3 4 3 3 3 3 4 4 4 3 3 5 4 2 6 6 4 6 5 5 7 8 9 8 7 7 5 6 7 7 6 6 5 5 7 10 14 19 18 27 42 33 24 34 39 27 11 6 9 7 9 11 6 6 5 4 5 4 4 4 2
12 10 11 13 14 13 9 6 7 6 5 6 6 7 9 9 17 33 39 29 14 6 7 6 4 3 3 3 4 4 3 3 3 4 4 4 3 3 5 5 4 7 8 4 3 5 6 8 10 9 7 7 6 6 9 9 10 9 6 6 5 8 12 15 21 23 33 44 35 28 32 32 28 16 4 8 10 11 10 7 7 7 6 6 3 4 4 3
11 11 12 13 14 12 9 6 6 6 5 6 6 8 10 8 20 39 33 17 14 11 5 6 3 2 3 3 4 4 3 4 3 3 4 4 4 3 4 5 3 7 12 7 3 5 7 9 12 10 7 7 6 6 9 10 10 9 8 9 11 14 18 21 25 31 43 46 33 27 27 26 28 16 4 7 8 7 8 7 8 8 8 6 4 4 4 4
11 12 12 13 13 10 7 6 5 6 6 6 7 8 12 18 25 27 17 11 16 13 5 5 3 2 4 3 4 5 4 4 3 4 4 4 5 3 3 4 1 7 14 9 6 7 7 8 12 12 7 6 7 5 7 9 9 10 9 12 22 25 21 25 29 31 37 35 25 22 22 22 21 11 6 8 8 8 10 9 8 8 7 6 5 6 5 5
12 12 12 12 11 8 6 6 5 6 6 6 9 7 11 26 27 14 6 6 10 9 5 4 3 3 4 3 4 5 4 5 4 4 4 4 5 4 4 4 2 5 7 7 10 8 7 12 14 13 7 6 8 5 7 10 8 11 12 14 26 28 27 32 29 25 29 25 19 20 23 22 16 9 10 11 10 11 9 8 7 5 6 5 5 7 6 6
13 13 12 11 9 7 6 6 6 6 6 6 9 9 11 20 16 6 4 4 4 6 4 3 3 4 4 4 4 5 5 5 4 4 5 4 4 5 5 3 4 4 3 10 15 9 13 19 14 11 9 7 7 7 8 8 7 13 16 17 21 21 28 37 33 32 37 31 23 22 24 23 14 10 12 11 10 10 7 8 8 6 6 7 7 8 8 7
14 13 12 10 7 7 6 7 7 5 6 7 7 11 18 18 8 3 5 3 3 5 4 4 4 4 5 4 4 5 6 6 5 4 4 5 5 6 6 4 5 4 4 11 13 9 15 19 13 10 9 7 8 9 9 8 13 20 19 19 23 20 23 28 26 24 28 36 37 29 22 17 12 11 10 10 11 10 10 10 9 9 9 9 11 10 10 10
15 13 11 8 7 7 6 6 7 5 6 7 6 14 22 17 7 4 5 3 3 4 5 6 6 4 5 5 4 5 6 6 6 5 5 5 6 7 6 6 6 5 5 7 9 11 14 13 12 10 9 10 10 10 10 10 15 19 17 20 26 24 21 24 28 24 27 43 42 28 23 19 15 14 10 9 12 11 12 13 10 11 11 11 13 12 12 13
15 12 9 7 7 7 6 6 6 6 6 6 8 14 14 8 5 5 5 5 4 4 5 6 8 6 4 5 5 5 5 6 5 5 6 6 7 8 7 6 6 6 5 5 8 13 12 9 10 11 10 11 11 11 11 12 14 16 17 19 21 23 24 28 37 37 40 48 36 20 22 21 18 18 12 11 13 13 14 13 12 12 12 13 14 14 14 14
14 11 7 7 7 6 5 6 6 6 6 6 7 9 6 3 4 4 4 5 5 5 5 5 7 6 4 5 6 5 5 6 6 6 6 7 9 10 8 7 7 6 5 6 7 10 11 10 10 12 13 12 12 13 12 12 15 17 19 20 19 24 29 30 37 41 44 47 37 24 21 20 19 18 13 13 15 15 16 14 13 13 14 16 17 15 15 15
12 8 6 7 6 4 4 6 6 5 5 5 4 4 4 4 4 4 4 5 5 5 6 6 6 6 5 5 6 6 6 6 6 6 8 9 9 9 9 8 8 7 6 7 7 8 12 15 14 12 14 14 13 14 13 13 16 18 21 23 21 23 25 25 30 35 39 44 42 33 28 25 21 15 14 16 16 16 17 15 14 14 15 18 19 18 17 16
8 7 7 6 4 4 5 5 5 5 5 4 4 4 4 4 4 4 5 5 6 6 6 6 7 6 6 6 6 7 7 6 6 6 7 8 8 9 10 9 8 7 7 7 8 9 13 18 18 13 13 15 14 15 14 15 17 18 20 23 23 23 23 25 27 24 27 41 47 44 37 25 17 16 16 16 16 16 16 15 15 16 18 20 20 19 18 17
7 7 6 5 3 4 5 4 4 4 4 4 4 3 3 4 4 5 6 6 6 7 6 7 7 7 7 7 7 7 8 7 7 7 7 8 8 9 9 9 8 7 7 8 9 10 13 19 19 14 13 14 14 15 15 17 19 20 21 21 23 28 30 35 40 31 25 33 38 41 42 26 13 15 15 14 17 17 16 18 19 21 23 23 21 20 19 19
7 7 5 4 4 4 4 4 3 3 3 3 3 3 3 4 4 5 5 6 6 7 7 7 7 7 7 8 8 8 8 8 8 8 8 8 8 8 8 8 8 7 8 9 9 11 15 18 18 15 13 13 14 15 17 19 20 20 22 21 24 32 35 38 45 39 33 35 32 37 46 31 13 14 16 15 18 18 19 22 24 25 27 26 24 22 21 21
7 6 4 3 4 4 4 3 3 3 3 3 3 3 4 4 5 5 6 6 7 7 7 8 7 7 8 8 8 8 8 8 9 9 9 8 8 9 9 8 8 8 9 9 11 14 18 19 20 19 14 10 11 14 17 20 21 21 21 20 22 27 28 30 35 34 37 40 37 45 52 32 13 16 18 18 20 21 24 26 27 29 31 30 30 29 27 26
7 5 4 4 4 4 4 3 3 3 3 3 4 4 4 4 5 6 6 7 7 7 8 8 8 8 8 8 8 8 8 8 9 9 9 9 9 9 9 9 9 9 10 10 12 15 17 19 25 29 26 21 18 20 22 23 23 22 21 22 25 26 27 30 31 35 42 37 33 46 48 26 15 19 19 20 24 25 27 29 31 33 33 32 31 30 29 29
6 4 3 4 4 4 4 3 3 3 3 3 4 4 5 5 6 6 6 7 7 7 8 7 7 8 8 8 8 8 8 7 8 8 8 8 8 9 9 9 9 9 10 11 12 13 15 17 20 28 34 33 27 25 24 23 22 21 18 21 26 30 33 33 32 40 47 37 32 41 37 21 17 20 21 25 27 27 29 31 31 31 31 30 29 27 28 30
5 4 4 4 4 3 4 4 3 3 3 4 4 4 5 5 6 7 7 7 7 8 8 8 7 7 7 8 8 8 7 7 7 8 8 8 8 9 9 9 9 10 11 12 12 14 16 15 14 18 23 22 19 17 18 20 21 19 17 19 24 30 36 39 41 41 37 35 37 35 30 27 24 21 24 27 28 28 30 30 30 31 31 31 30 29 29 30
4 4 4 4 4 4 4 3 3 3 4 4 4 5 5 6 6 7 7 7 7 8 8 8 8 7 8 7 8 8 8 8 7 7 8 8 8 9 9 9 9 10 11 12 13 16 18 16 14 16 17 14 14 14 16 21 23 19 16 16 18 25 36 44 45 34 27 39 42 26 22 32 29 23 26 28 29 31 31 32 35 36 37 38 37 35 34 33
4 5 4 4 4 4 4 3 3 3 4 4 5 5 6 6 6 7 7 7 8 8 8 8 8 7 8 7 7 7 7 7 7 8 8 8 8 9 9 9 9 9 11 13 14 16 19 17 14 17 19 15 14 14 16 20 22 20 18 16 16 23 34 40 37 29 32 44 41 24 25 33 30 28 30 30 32 36 37 39 41 41 42 44 43 43 42 40
5 6 5 4 4 4 4 4 3 4 4 4 5 6 6 7 7 7 7 8 8 8 8 8 8 7 7 7 7 7 7 7 7 8 8 8 9 9 9 9 9 10 11 12 14 17 20 20 18 22 25 18 13 15 17 20 22 20 18 16 17 23 31 35 35 33 37 42 36 31 36 35 30 32 33 33 38 42 42 43 43 43 45 45 45 46 45 44
5 6 5 4 4 4 4 4 4 4 4 5 6 7 7 7 8 7 7 8 7 8 8 7 7 7 7 7 7 7 7 7 7 8 8 9 9 9 9 9 9 10 11 11 13 17 22 23 20 26 32 22 12 16 22 26 31 28 19 15 18 24 30 35 37 35 37 39 36 38 44 39 31 33 37 41 45 46 47 47 47 48 49 48 47 45 45 47
5 6 5 4 4 4 4 4 4 4 5 6 6 6 7 7 7 7 7 7 7 7 7 7 7 7 7 7 7 7 7 7 8 8 8 9 9 8 10 10 9 11 11 11 14 16 22 25 22 30 42 29 17 24 32 37 42 35 22 19 23 28 31 33 37 39 39 42 42 44 47 43 37 39 44 47 49 50 51 51 51 52 51 48 47 47 49 51
5 5 5 4 4 5 4 4 4 5 5 6 6 6 7 6 7 7 7 7 7 7 7 7 6 7 6 7 7 7 8 8 8 8 8 8 9 8 9 10 10 11 11 12 15 15 21 27 27 38 49 35 25 35 40 44 48 37 27 28 28 29 31 30 32 37 39 43 47 47 47 46 46 49 51 50 51 54 54 53 53 51 48 46 48 53 57 57
Wind_Speed
13 12 13 13 14 14 14 14 14 14 13 12 11 10 9 7 6 4 3 2 3 3 4 5 6 7 8 9 10 11 13 13 15 15 16 17 17 17 17 17 17 16 16 15 15 14 14 14 13 12 10 11 10 8 10 10 9 10 13 15 15 13 14 15 14 10 6 7 11 14 17 20 21 19 19 19 18 17 17 18 18 17 16 17 17 16 16 17
10 10 12 13 15 16 16 15 15 14 12 10 9 7 6 4 3 3 3 4 5 6 8 8 9 9 10 11 12 13 14 15 17 15 15 17 16 16 16 15 15 14 14 13 12 12 12 13 14 12 11 11 11 11 11 12 12 11 12 14 13 13 16 18 17 15 13 13 15 19 22 22 23 21 20 21 20 20 19 19 19 17 16 16 16 16 16 17
9 10 12 14 15 15 15 14 12 11 9 7 6 4 3 3 4 5 6 8 9 10 10 11 11 11 11 12 12 13 13 15 16 13 13 14 13 13 13 13 13 13 12 12 12 11 10 11 13 12 12 11 11 13 13 13 16 13 13 14 12 15 18 20 20 20 20 20 21 26 27 24 23 22 20 21 23 22 21 21 20 18 17 17 17 16 17 17
10 11 13 13 13 13 12 10 9 7 6 4 3 3 3 5 6 8 9 11 12 11 11 10 10 10 10 10 10 10 10 11 13 10 10 11 11 12 13 13 13 12 12 11 10 10 9 9 10 10 10 9 8 11 13 14 15 12 13 15 16 18 18 21 23 22 23 24 25 27 28 24 22 21 20 21 23 24 24 22 20 19 18 18 18 18 18 18
11 12 13 13 12 10 9 7 6 4 3 3 4 5 6 8 9 11 12 12 11 10 9 8 8 7 7 7 7 7 7 7 9 9 9 11 11 12 12 12 12 11 10 9 9 8 8 8 8 8 9 8 6 11 13 13 15 12 12 17 20 21 21 24 24 23 24 25 26 27 27 24 22 22 21 22 23 25 26 23 21 21 20 18 18 19 19 19
12 12 12 11 9 7 6 4 3 3 3 4 6 8 10 11 13 13 12 11 9 7 6 6 6 7 7 7 6 6 6 5 8 10 10 11 10 10 10 11 11 11 10 9 9 8 8 7 8 7 7 7 5 11 13 10 14 15 13 19 22 22 23 24 24 25 25 25 25 25 25 25 24 24 23 23 23 24 26 25 24 24 22 21 20 20 20 21
11 10 9 8 6 5 3 2 3 4 6 7 9 11 12 13 13 12 9 7 6 5 5 6 6 6 7 6 6 6 6 6 9 10 10 9 9 9 10 11 12 11 11 10 10 9 9 8 7 7 7 8 6 10 12 11 17 18 17 22 23 22 24 23 23 23 24 24 25 25 25 25 25 25 24 24 24 24 25 25 25 24 23 22 22 22 22 22
9 8 7 5 3 2 3 4 6 7 9 10 11 12 12 12 10 8 6 5 5 5 4 5 5 5 6 6 7 7 6 7 9 9 10 11 11 11 12 12 12 11 11 10 10 8 8 8 7 7 7 8 9 12 15 16 19 20 19 23 23 22 23 22 23 23 23 24 24 24 25 25 25 25 26 24 23 24 25 24 24 24 24 23 23 23 23 22
7 5 4 3 3 4 6 7 9 11 12 12 12 11 10 8 6 4 5 5 5 4 4 5 5 5 6 6 8 8 7 9 10 9 11 14 13 12 12 12 11 11 10 9 9 8 8 8 7 9 9 9 12 15 18 18 18 19 21 23 23 21 22 22 23 23 23 23 23 24 25 25 24 24 26 25 22 23 24 24 24 24 24 24 23 24 24 24
5 4 4 5 6 7 9 11 12 12 12 11 10 8 6 4 3 4 5 5 4 4 4 5 4 5 6 6 7 7 8 11 11 11 14 15 13 12 11 11 10 10 9 8 8 7 8 9 8 10 10 11 14 17 18 18 19 20 22 23 23 23 23 23 23 23 23 23 23 23 25 25 23 25 28 25 22 22 23 24 24 25 25 25 25 25 26 26
4 4 5 7 9 10 11 12 11 10 9 8 6 4 3 2 3 5 6 5 4 3 3 3 4 5 6 7 8 7 9 12 12 12 15 15 13 11 11 10 10 9 9 8 7 7 8 8 8 9 9 10 15 16 15 17 18 19 20 22 23 24 23 23 23 22 22 22 21 22 25 26 24 25 25 22 19 19 21 22 23 24 25 25 26 26 27 28
5 6 7 9 10 10 10 9 8 8 7 5 4 3 3 2 4 6 7 6 4 3 3 3 4 5 6 8 8 8 9 10 11 13 14 13 11 10 10 9 9 9 8 8 7 7 7 7 8 9 9 10 13 14 13 13 15 15 16 18 21 21 21 21 20 19 19 20 20 22 24 24 22 20 19 18 18 19 21 22 23 24 24 25 26 26 26 27
6 7 7 8 8 7 7 7 7 6 5 5 4 3 2 3 6 7 7 6 4 3 3 4 4 6 8 9 8 8 8 9 11 13 13 11 9 9 8 8 9 8 8 7 7 7 7 7 7 8 9 10 11 13 12 12 13 14 14 15 17 18 19 19 17 16 18 20 20 21 23 23 22 21 21 21 21 22 23 23 23 23 24 24 25 26 26 26
6 5 5 5 5 6 6 6 6 6 6 5 4 3 3 5 7 8 7 5 3 3 3 4 5 6 8 8 8 9 9 9 10 11 10 10 9 8 8 9 9 8 8 8 7 7 6 6 7 7 8 9 10 11 12 13 12 12 13 13 14 13 16 17 16 17 20 21 20 20 23 23 21 21 21 22 23 23 25 25 26 25 25 25 26 26 26 27
4 4 3 4 4 5 6 6 7 6 5 4 3 4 5 7 7 7 5 4 3 3 3 4 5 7 7 7 9 11 11 12 11 11 11 11 11 10 10 10 9 8 7 7 6 7 6 6 7 7 7 7 9 9 9 11 12 11 10 10 10 9 13 15 16 17 19 21 21 20 21 19 18 22 23 24 26 27 28 28 29 28 27 26 26 27 27 27
3 3 3 3 4 5 6 6 7 6 6 5 5 6 7 8 7 6 4 3 3 3 4 4 6 9 8 7 10 12 13 14 13 13 12 12 11 11 11 10 9 7 7 7 6 6 6 7 7 7 7 5 7 8 7 10 12 11 9 8 9 9 11 15 17 19 19 22 22 21 24 25 24 27 28 28 28 28 28 28 29 28 27 26 26 26 27 26
3 3 3 3 4 5 6 7 7 7 7 7 7 7 8 7 6 5 4 4 4 4 5 6 9 10 7 8 12 13 14 14 13 12 11 11 10 10 10 9 8 7 8 7 5 7 8 7 7 7 5 3 5 6 5 7 8 5 6 8 8 7 9 15 19 21 21 23 24 25 29 32 29 28 28 26 26 26 25 25 27 28 27 25 25 25 25 26
3 3 3 4 5 6 6 7 7 6 6 6 7 7 7 6 5 5 5 5 5 5 5 7 10 8 6 9 13 13 12 12 11 10 10 10 9 10 9 9 9 8 10 7 6 9 10 9 6 3 3 7 9 8 5 7 7 7 10 11 12 13 14 16 18 21 22 25 28 27 28 29 26 25 27 26 25 26 23 22 24 25 25 24 23 23 22 23
3 3 4 5 5 6 6 6 6 6 5 5 6 6 6 6 5 5 5 5 6 6 6 8 9 8 7 10 12 11 10 10 9 9 9 9 9 10 9 9 9 8 8 6 6 9 8 7 3 3 10 13 14 11 7 9 11 14 16 16 17 18 18 17 20 23 23 25 26 23 25 27 23 21 24 25 25 23 21 19 21 21 22 21 20 19 19 19
2 3 4 5 6 7 7 6 5 5 5 5 5 5 5 4 3 5 5 5 7 7 8 9 9 8 9 10 10 9 9 9 8 8 9 9 10 10 9 10 10 8 8 6 7 8 6 5 3 6 11 13 13 11 9 11 12 14 14 15 15 16 16 14 18 24 23 25 24 21 23 24 21 19 19 22 21 17 15 15 17 17 17 17 16 15 15 15
3 3 4 6 7 9 9 8 6 6 5 5 5 5 4 4 4 5 5 5 6 6 7 9 9 8 8 9 9 10 10 9 8 9 11 11 11 10 9 11 9 6 9 9 8 8 5 5 6 8 10 10 10 9 10 10 11 12 10 9 9 11 15 14 18 24 24 25 22 19 22 21 17 14 12 16 16 12 11 11 12 13 13 13 13 12 13 13
3 4 4 6 8 10 10 9 7 6 6 5 5 4 4 4 5 5 4 4 4 5 7 9 9 8 8 9 9 11 11 10 10 12 13 12 12 10 10 11 7 5 9 8 6 7 7 8 8 10 10 9 9 8 8 9 8 8 5 8 10 11 17 17 17 22 23 26 24 19 22 21 11 8 10 12 12 9 9 10 10 11 11 11 10 10 11 11
4 4 4 6 9 10 11 9 8 7 6 6 5 4 4 3 3 3 3 3 3 5 8 10 10 8 9 10 10 12 12 10 11 12 12 11 10 10 9 9 8 7 8 7 3 3 8 10 10 10 9 7 8 6 6 7 7 7 7 11 15 15 18 19 20 22 21 23 22 19 25 22 6 7 16 13 10 10 9 10 10 11 11 10 10 10 10 10
4 4 4 6 9 10 11 9 7 7 6 6 5 4 3 2 2 2 2 4 3 5 8 11 10 8 11 11 11 12 11 9 12 12 11 10 9 9 8 8 8 7 7 7 4 2 6 8 9 8 7 7 8 5 6 8 6 6 12 15 17 18 19 21 23 24 22 19 15 18 25 18 5 12 21 15 11 11 10 10 10 11 12 11 11 11 11 12
4 4 4 6 9 11 11 8 7 6 6 5 4 3 2 2 2 1 2 4 4 5 8 10 10 9 11 11 10 11 9 9 12 11 10 10 10 9 8 8 8 7 7 6 5 2 3 6 7 7 7 8 7 5 8 10 6 6 12 14 17 19 20 22 22 22 22 16 13 18 16 9 12 19 20 17 15 14 12 11 10 12 13 14 13 12 13 14
4 4 4 6 8 11 11 8 6 6 5 4 3 3 2 2 2 0 2 4 4 6 9 10 9 9 11 11 10 11 8 9 11 10 10 11 11 10 9 9 8 7 8 7 5 5 7 8 7 7 8 8 8 8 11 12 10 8 10 13 16 19 20 20 20 19 17 13 16 20 11 11 22 24 17 18 20 18 15 12 12 13 15 16 15 14 15 15
4 4 4 5 8 11 10 7 6 5 4 4 3 3 2 2 2 1 3 3 4 6 9 10 9 9 11 10 10 10 9 9 11 10 11 12 12 11 10 11 9 8 9 9 5 6 9 9 8 8 9 9 7 8 12 13 12 9 10 13 15 17 18 17 18 16 15 15 20 19 10 12 21 25 22 21 22 21 17 13 14 17 18 19 17 16 17 17
5 4 4 5 8 10 9 7 6 5 5 4 3 2 2 2 2 1 1 2 2 5 7 8 9 9 10 10 10 10 10 10 11 11 11 13 13 11 10 13 11 8 11 10 6 8 11 9 9 8 10 11 7 8 11 11 12 11 11 14 15 16 15 15 16 16 13 13 16 14 8 7 16 25 25 22 23 21 17 15 16 20 23 22 19 17 18 19
5 4 4 5 8 9 9 7 6 6 5 4 2 1 2 1 1 2 0 2 3 5 6 7 8 8 9 9 9 10 10 10 11 11 11 12 13 12 11 14 13 9 10 11 10 11 12 10 10 9 11 12 9 10 11 10 12 13 14 16 17 15 14 14 15 14 9 7 13 14 8 4 14 30 27 18 20 16 12 16 19 21 26 25 20 18 19 20
5 4 5 6 8 9 9 7 7 6 4 3 1 1 1 1 2 1 1 2 3 4 6 7 7 8 9 8 9 10 10 10 11 11 11 10 12 14 12 13 14 11 11 13 13 12 12 12 11 9 11 12 10 12 12 12 13 14 15 18 18 15 14 14 15 12 6 5 10 12 11 3 9 28 29 17 16 15 14 20 21 23 28 25 20 19 19 20
5 4 5 6 8 9 9 7 6 5 3 1 0 1 2 2 2 1 2 1 2 3 5 6 7 7 8 9 10 10 10 10 11 11 11 11 12 15 14 13 14 12 12 14 15 13 12 13 12 12 13 13 12 13 13 15 17 17 18 19 17 13 10 11 10 5 2 4 7 10 11 5 7 26 33 20 18 19 20 24 25 28 29 21 19 22 24 22
5 4 5 6 8 8 8 7 5 3 1 0 0 2 2 2 1 3 2 1 2 3 4 5 5 6 8 9 9 10 10 11 10 11 12 11 11 14 14 14 15 10 7 12 13 13 14 14 12 12 14 13 12 15 15 15 17 18 19 15 10 8 6 4 3 3 4 4 4 8 12 11 20 34 31 19 19 23 23 25 26 27 23 16 18 26 28 25
5 5 6 7 8 8 7 5 3 2 1 1 2 2 2 1 1 3 2 1 2 3 3 4 5 6 7 8 9 10 10 11 11 10 12 11 9 12 13 13 14 10 8 11 10 10 13 13 11 12 13 13 14 16 13 12 14 16 14 8 5 4 3 3 3 4 6 5 9 16 15 15 25 29 24 23 26 24 21 21 20 21 17 16 22 27 27 25
6 6 6 7 8 7 5 3 2 2 2 2 2 3 2 1 2 2 1 0 1 2 3 4 5 6 8 8 9 10 9 10 11 10 11 11 9 11 12 12 13 11 11 12 9 9 10 8 10 13 14 14 15 14 12 12 14 13 8 5 6 5 3 3 3 3 6 10 17 20 12 12 19 24 30 31 23 14 14 16 15 16 16 19 24 25 25 23
6 7 7 8 7 6 4 2 2 2 2 3 3 3 1 2 2 2 1 0 2 2 2 4 4 5 7 8 8 9 8 9 10 9 9 10 8 10 12 12 12 12 12 10 9 9 8 8 13 16 15 15 14 14 14 14 11 9 8 7 8 6 6 8 10 13 14 12 14 14 13 19 28 34 36 27 17 16 18 17 16 16 18 21 23 22 23 23
6 7 8 8 7 5 3 2 2 3 3 3 4 3 1 3 3 2 1 2 2 2 2 3 4 5 6 7 8 8 8 9 9 8 8 9 8 8 11 12 11 12 11 11 9 7 7 10 14 15 13 13 13 15 17 15 10 10 10 9 8 8 10 12 12 14 11 7 9 12 18 26 30 34 35 26 24 28 23 18 19 20 21 23 25 24 23 23
6 7 8 7 6 4 3 3 3 4 4 4 4 3 2 3 4 3 3 3 2 2 2 1 3 4 5 7 7 7 7 8 9 9 9 9 8 9 11 11 11 12 12 12 10 8 11 15 16 14 12 13 16 18 19 17 13 13 12 10 10 10 10 8 6 6 4 4 9 14 21 24 20 24 34 32 30 28 22 21 25 24 24 28 31 30 28 26
7 7 7 6 5 4 4 4 4 5 5 5 4 3 3 3 4 4 4 3 3 3 3 2 2 3 4 5 6 7 7 7 9 9 8 8 8 10 11 11 11 13 13 13 12 11 13 15 16 15 14 16 19 20 20 17 14 13 13 11 10 8 6 4 3 4 4 3 7 14 21 23 21 26 35 34 27 22 20 24 28 26 27 32 35 35 33 31
7 7 7 6 5 4 4 4 5 6 6 6 4 4 4 4 4 5 4 3 2 1 2 3 2 2 3 4 6 7 7 7 8 8 8 8 9 12 11 10 12 14 14 14 14 14 13 11 12 17 20 20 21 20 18 18 16 15 14 13 12 12 10 9 7 5 4 3 6 13 14 15 21 28 32 26 20 22 24 28 28 26 30 37 37 36 35 34
7 7 6 6 5 4 4 5 7 7 7 6 5 4 5 5 5 5 4 3 2 1 1 1 2 2 3 5 6 7 8 8 8 8 8 9 11 12 11 11 15 16 16 15 15 15 13 9 12 20 24 23 22 20 19 21 20 18 18 15 14 13 11 12 13 15 12 5 4 6 9 20 30 31 32 29 26 27 27 26 28 30 37 41 38 35 35 34
7 6 5 5 4 4 5 6 7 7 7 6 5 5 6 6 6 5 4 3 2 1 0 1 2 3 4 5 6 8 9 10 9 9 9 11 11 11 12 14 17 17 17 17 16 15 12 10 16 24 25 25 26 23 22 22 21 22 22 19 18 14 10 7 8 13 15 12 11 6 10 35 48 40 39 40 32 26 24 27 34 39 41 41 37 34 34 33
6 6 5 5 4 5 5 6 7 7 6 6 5 6 7 6 5 5 4 3 2 2 2 3 4 4 5 7 8 8 10 12 10 9 10 13 12 13 15 18 18 17 18 19 17 16 15 14 19 24 25 26 26 23 19 19 20 23 22 21 18 15 15 11 6 9 13 17 23 14 11 38 55 44 38 37 28 26 32 37 42 42 40 39 36 34 33 34
6 5 5 5 5 6 6 7 7 7 6 6 6 7 7 6 5 5 4 3 3 3 4 4 5 6 7 8 9 10 11 12 11 11 13 14 14 15 17 19 19 19 19 19 17 17 16 14 17 23 28 28 26 22 17 15 16 18 21 21 18 19 21 20 18 18 17 20 23 9 8 36 51 41 34 32 31 37 42 42 42 40 39 37 35 35 36 37
5 5 4 5 5 6 7 7 7 7 7 6 7 7 6 6 5 5 4 4 4 4 5 6 7 7 9 10 11 12 12 11 12 15 16 15 16 18 18 19 20 20 20 20 20 18 16 13 14 17 19 19 18 15 11 10 12 18 25 25 23 22 20 22 26 22 20 28 25 8 11 39 48 41 40 39 39 43 43 40 39 38 37 37 35 37 37 36
5 5 4 5 6 7 7 7 7 8 8 7 7 7 7 6 6 5 5 5 5 6 7 8 9 10 11 12 13 13 13 13 15 17 18 18 19 19 19 20 22 23 23 23 23 21 19 19 18 14 8 7 11 11 11 15 19 25 31 30 29 27 22 23 23 17 19 29 24 16 26 49 53 46 45 44 42 43 42 40 39 37 38 38 38 37 36 33
6 5 4 5 6 7 7 7 8 8 8 8 7 7 7 7 6 6 6 6 7 7 9 10 11 12 12 13 15 16 15 16 16 18 20 21 20 20 20 23 24 24 24 25 25 24 23 25 25 23 21 21 24 26 25 28 30 32 34 33 32 32 30 26 21 22 29 31 27 31 43 51 53 49 46 44 42 42 42 40 39 38 38 38 37 36 35 33
6 5 5 6 6 7 8 8 8 8 8 8 8 8 8 7 7 7 7 7 8 9 11 12 12 13 13 15 17 18 18 18 18 21 22 21 22 23 23 25 26 26 26 26 26 24 24 29 30 28 30 31 33 35 33 32 35 36 36 36 34 33 32 30 30 35 37 26 28 45 47 42 48 51 46 43 41 40 40 38 37 37 36 35 35 35 35 35
6 6 6 7 6 6 8 9 8 9 9 9 8 7 7 8 8 8 8 9 10 11 13 14 13 14 16 17 18 20 21 22 22 23 23 23 25 26 26 27 27 27 27 26 26 25 26 32 34 32 33 34 33 35 36 35 37 36 35 36 36 33 33 36 40 45 40 30 35 49 49 45 50 48 42 41 40 39 39 38 36 35 33 34 35 36 37 38
7 7 7 8 8 6 7 9 9 9 9 9 9 8 8 8 8 9 10 11 12 13 15 16 15 16 18 19 20 21 21 22 24 26 26 26 27 28 29 30 29 29 30 29 30 28 27 32 35 33 35 37 35 34 36 36 34 34 36 37 39 38 38 41 43 41 37 39 44 47 48 49 48 42 41 42 39 38 38 36 35 33 34 37 39 42 45 46
7 7 7 9 9 7 8 9 9 10 10 10 10 9 9 9 9 10 12 13 15 16 16 18 18 19 20 21 22 22 20 22 26 28 28 28 29 30 31 31 32 32 33 34 34 31 28 32 35 34 36 40 38 33 33 30 28 32 39 41 40 38 35 35 37 35 33 38 41 40 44 48 44 41 43 42 39 38 36 34 34 34 38 43 46 49 49 47
8 8 8 9 9 8 8 9 10 11 11 10 10 9 9 10 11 12 14 15 17 17 17 18 19 20 22 23 24 23 22 24 27 28 29 30 31 32 32 33 35 35 36 36 36 35 32 33 36 32 31 39 38 30 26 25 25 33 40 37 28 21 20 24 26 25 26 31 34 35 40 44 43 42 42 40 36 34 33 33 36 40 46 50 50 48 44 41
9 9 9 10 9 8 9 9 10 11 11 10 10 11 11 12 13 14 16 16 17 18 19 20 21 23 25 25 25 24 25 27 28 29 31 31 32 34 34 35 36 36 38 37 36 38 36 35 35 27 24 35 34 23 24 26 24 28 29 20 14 15 20 26 24 19 19 22 25 31 37 39 39 38 35 33 31 31 33 38 43 48 52 51 47 42 39 39
Wind_Direction
96 91 92 101 107 110 110 109 108 107 107 106 104 103 102 96 90 83 67 41 11 351 331 326 317 311 308 304 303 300 298 296 293 294 295 294 296 297 298 297 296 295 293 292 291 290 288 284 281 278 280 281 280 276 273 275 269 254 242 240 245 252 256 255 260 265 254 257 258 264 276 278 278 281 281 279 276 274 273 273 275 277 278 279 278 274 269 267
99 96 99 106 110 112 113 113 111 110 109 106 102 98 92 78 58 31 2 345 334 328 320 317 312 307 302 300 298 295 296 293 291 294 294 295 299 301 301 299 298 297 296 296 294 292 290 287 284 282 282 284 282 273 272 274 267 263 256 249 255 259 256 254 257 261 261 266 273 276 281 284 282 282 282 281 278 275 274 274 276 277 279 282 282 277 271 267
110 107 108 110 111 110 110 108 107 106 103 97 91 76 56 26 2 344 336 330 325 322 318 314 308 304 300 298 297 295 296 294 295 302 300 302 308 307 306 305 306 305 303 300 297 295 291 286 286 285 283 280 276 276 277 273 268 269 262 254 254 256 256 257 255 256 260 265 276 282 282 282 282 283 282 281 279 278 275 274 276 278 280 282 282 278 272 268
112 110 109 108 106 105 104 103 103 98 90 77 54 23 359 343 336 330 328 324 322 319 315 312 309 308 305 304 304 303 302 296 301 313 314 316 316 310 309 310 311 310 307 303 299 297 292 286 284 284 282 277 261 265 273 273 271 271 264 255 245 246 254 259 258 259 262 264 273 281 281 281 282 282 281 279 280 280 278 279 282 281 279 277 276 273 270 267
112 111 109 108 107 105 102 96 89 74 55 28 354 337 332 330 330 327 325 323 322 321 319 321 323 325 325 324 322 318 311 299 307 320 320 319 313 308 309 310 312 310 308 304 300 297 293 290 284 282 279 279 254 248 269 281 273 266 259 255 252 255 259 262 265 267 268 270 274 278 281 284 284 282 280 278 278 280 283 287 286 282 279 277 273 269 266 263
112 110 108 107 104 98 90 74 56 25 356 338 329 328 328 328 328 326 325 326 328 333 336 342 345 345 343 341 337 324 312 299 312 322 318 316 309 304 306 309 310 306 304 301 298 293 288 284 282 287 279 283 268 249 269 279 263 265 266 263 265 268 269 269 272 273 274 275 276 279 282 284 282 281 280 279 278 280 284 286 284 283 281 276 271 266 262 260
107 105 101 96 90 83 64 29 349 331 327 326 325 324 324 325 326 326 328 334 340 344 347 349 349 349 348 348 343 323 317 315 317 324 322 317 311 306 308 309 309 306 303 300 296 292 285 281 277 282 275 279 284 262 261 248 250 267 274 269 269 271 274 278 279 278 278 278 278 280 280 280 281 282 281 279 280 280 280 281 281 281 279 276 272 268 264 261
100 97 92 84 73 41 358 334 324 321 319 318 315 314 318 322 325 329 337 341 340 338 339 343 342 345 349 351 345 326 324 334 328 328 326 321 315 309 308 307 307 303 299 297 294 290 282 277 263 257 256 259 264 254 248 244 254 269 271 270 273 275 279 281 281 280 280 279 280 280 279 280 282 282 280 278 279 279 279 279 279 279 277 276 273 270 267 264
91 84 68 38 6 343 330 322 316 312 310 309 308 311 318 324 331 341 341 338 335 330 330 335 335 340 347 349 343 326 315 324 324 323 325 325 318 309 306 305 305 303 301 297 292 286 273 268 252 245 246 246 249 249 252 254 257 262 264 271 279 281 281 280 280 280 280 281 281 281 280 280 281 280 278 280 281 279 279 279 278 276 275 273 271 270 268 266
74 51 16 353 337 327 319 313 310 310 310 310 313 318 328 343 0 351 341 341 337 329 327 330 330 331 336 336 332 317 303 311 312 312 319 325 323 316 314 313 314 312 308 303 296 286 275 274 267 258 255 252 253 255 260 262 260 260 264 272 279 281 282 282 281 282 281 282 283 284 283 283 283 281 281 286 287 282 278 276 275 274 273 272 270 268 267 265
41 14 350 334 324 317 313 312 316 323 325 328 333 345 15 43 17 351 345 346 343 334 331 332 331 328 328 328 328 320 309 311 311 313 317 322 324 321 315 315 316 316 314 310 303 294 285 280 273 266 258 253 258 264 266 264 266 267 269 274 276 278 281 282 284 286 286 287 289 289 288 288 289 287 288 292 288 279 275 276 277 277 276 274 272 270 269 268
7 351 335 324 316 314 318 327 341 350 355 1 15 50 67 47 1 349 345 345 347 347 355 349 341 338 334 333 331 327 320 317 316 315 315 316 316 310 307 313 317 317 315 312 309 301 292 285 274 267 261 257 262 272 274 270 273 276 278 278 279 285 287 286 289 292 293 293 296 296 294 294 295 292 291 289 283 279 279 281 281 279 278 276 275 273 272 271
347 336 325 318 316 323 336 352 7 17 29 38 55 65 44 5 347 344 344 346 352 356 1 352 345 341 337 336 332 329 328 323 319 314 312 312 309 310 317 324 322 319 316 314 313 305 297 289 282 273 268 269 273 278 282 283 286 288 287 284 286 294 294 294 301 302 299 298 300 301 296 296 296 290 287 286 284 284 284 285 284 281 279 277 275 274 273 271
333 325 322 325 329 343 358 10 22 34 43 50 52 30 352 339 336 338 343 348 353 353 351 339 335 335 334 337 335 335 334 328 322 316 315 319 323 331 332 327 323 320 319 318 313 310 307 297 291 288 282 282 284 284 287 292 297 297 295 299 299 288 279 287 300 302 299 298 300 299 295 298 298 291 289 288 287 287 287 286 284 282 281 278 275 274 272 270
336 337 350 354 354 0 5 7 14 21 28 32 11 342 329 330 333 338 345 352 356 349 339 338 336 336 340 347 343 338 335 332 330 328 329 332 334 334 328 323 322 319 319 318 317 317 315 310 308 304 297 297 294 293 301 305 308 307 297 306 311 279 270 288 298 299 299 298 301 299 293 294 291 288 290 289 288 288 287 286 285 283 280 278 275 273 271 270
355 5 16 12 7 0 356 351 349 349 352 351 338 330 330 333 337 344 354 3 1 357 352 354 349 345 349 354 347 339 334 331 332 332 333 333 331 328 324 323 321 323 326 321 323 327 326 327 324 319 318 321 313 309 315 297 288 294 287 295 310 286 282 300 300 295 296 297 301 301 296 292 289 289 290 288 288 288 286 287 286 284 282 279 276 274 273 271
7 14 20 16 8 355 348 340 336 336 334 335 334 334 336 338 344 352 6 12 7 12 10 5 357 351 351 348 341 336 332 330 329 330 331 331 329 327 324 322 326 333 332 327 335 344 345 344 343 348 348 332 311 306 306 286 266 269 266 268 287 279 287 302 298 293 295 298 302 302 297 294 296 297 295 293 293 292 291 289 286 285 284 281 278 275 274 273
8 7 12 14 9 1 353 344 340 337 335 336 337 340 342 348 356 1 9 15 16 16 10 4 359 352 341 337 335 332 331 329 329 330 331 332 329 328 328 331 338 340 340 343 350 354 349 347 13 36 282 280 305 307 277 272 272 280 282 280 283 283 289 294 289 287 293 299 300 300 296 295 301 299 296 299 298 296 297 291 285 285 286 283 280 277 275 274
6 1 5 14 16 11 2 352 347 344 346 347 344 348 352 356 6 9 9 15 18 14 8 3 356 346 332 330 333 333 333 333 334 331 330 330 329 335 335 336 337 339 2 10 330 336 333 328 14 198 255 278 303 308 276 268 275 280 287 291 294 296 298 297 290 288 296 301 300 304 301 299 305 301 296 299 297 298 299 290 284 284 286 285 283 281 278 275
6 357 3 17 19 14 10 5 1 0 4 359 353 355 350 350 7 15 16 15 13 14 10 1 348 339 332 332 335 337 337 338 336 331 333 334 335 340 337 342 346 342 2 4 312 321 325 307 284 256 275 288 299 302 291 284 282 281 284 289 300 306 302 299 293 294 304 305 307 313 305 301 309 309 299 294 297 303 299 288 285 286 286 286 286 283 280 277
3 357 7 17 16 14 13 13 14 15 13 4 358 354 345 354 10 10 10 7 5 7 1 351 343 337 337 338 340 341 341 338 337 339 344 343 342 346 343 351 3 334 326 336 328 334 334 312 308 303 302 301 304 307 301 296 289 288 291 301 317 309 293 284 283 294 309 310 315 321 310 314 320 312 299 289 297 313 303 295 294 292 290 288 288 282 277 275
358 357 8 15 13 12 10 10 17 18 13 6 360 355 353 5 10 2 356 351 345 344 345 344 344 343 344 344 343 344 343 344 348 348 348 347 346 351 347 348 0 318 310 329 342 332 316 312 322 325 320 313 314 313 307 307 303 298 301 313 316 299 292 293 292 303 316 315 320 328 321 327 326 310 329 314 308 321 307 307 304 297 296 289 286 280 275 274
352 353 5 11 10 9 5 5 12 14 11 6 1 359 0 1 2 3 3 348 329 340 344 345 349 348 348 348 345 347 347 350 353 351 350 351 350 352 349 347 347 336 329 338 347 280 282 305 323 324 323 323 315 315 329 337 338 320 300 303 305 302 304 310 313 318 321 316 317 325 325 330 324 314 338 333 318 322 314 315 308 299 302 293 286 282 277 275
347 344 355 5 6 4 1 0 5 10 8 4 0 357 359 357 359 7 355 339 326 346 351 350 351 347 349 350 347 349 353 357 355 355 358 358 356 355 355 355 348 347 351 346 351 230 260 299 320 324 330 328 315 332 6 7 11 315 293 298 304 309 312 312 317 321 326 327 322 324 327 329 316 316 329 330 321 316 310 318 313 302 303 296 290 286 278 275
347 339 345 357 2 360 357 358 1 4 3 2 357 350 356 1 7 21 353 343 326 337 348 349 348 347 350 351 351 356 1 4 360 1 5 3 3 1 0 2 357 3 7 358 4 8 334 327 328 339 336 331 338 6 6 358 360 308 292 301 305 309 313 313 319 322 329 337 325 326 333 319 304 314 320 321 320 313 303 308 313 310 307 300 294 286 279 276
348 336 336 349 357 355 353 355 359 2 359 356 349 349 5 14 18 30 332 333 303 319 340 346 350 354 355 355 0 5 8 8 6 9 12 9 9 8 6 7 9 18 16 12 14 2 359 351 344 351 339 348 10 355 345 342 335 316 304 307 308 310 314 317 323 322 323 325 313 316 312 284 304 319 323 316 313 310 301 299 305 313 314 306 297 287 281 280
344 335 332 342 351 350 349 351 357 2 354 347 346 354 16 26 25 353 316 306 276 315 338 346 354 359 1 5 9 13 14 12 13 17 17 15 14 12 12 14 17 26 21 18 15 354 358 355 350 349 341 6 21 328 326 331 324 322 318 317 317 317 319 321 323 317 313 312 309 308 289 271 297 314 324 315 307 304 297 297 305 311 315 310 300 289 282 282
336 333 330 334 341 343 345 345 349 352 343 343 348 357 36 43 25 29 338 291 296 333 342 352 0 3 9 14 16 20 22 20 20 21 21 21 19 16 18 18 18 22 21 22 17 0 1 358 353 352 351 6 6 322 327 328 324 327 328 330 327 322 323 322 316 315 318 314 304 296 279 258 281 301 316 312 301 298 289 293 304 310 315 310 302 293 284 281
330 331 328 325 330 336 339 336 336 337 336 341 347 9 48 59 54 63 49 274 316 344 351 358 4 9 15 19 23 27 28 27 26 25 26 26 22 22 24 19 16 16 16 19 18 7 3 360 355 353 355 357 349 340 337 327 329 333 333 336 331 327 331 324 314 319 327 294 283 278 256 230 285 298 310 308 298 294 284 296 303 308 313 308 302 300 293 286
325 326 323 319 323 328 330 329 327 329 332 339 358 44 71 96 71 57 248 276 303 333 356 3 6 13 20 25 29 30 30 30 28 27 29 26 24 26 25 16 10 6 4 9 10 2 357 358 354 350 352 350 345 347 342 334 337 338 338 338 336 340 338 316 305 319 336 270 264 252 245 250 295 301 309 307 295 291 291 300 296 298 308 305 297 299 298 293
322 321 320 317 318 320 323 324 322 324 328 323 11 100 124 100 53 298 253 311 316 316 353 7 13 19 24 28 30 29 28 26 22 25 24 22 26 23 19 13 6 3 359 356 354 351 352 352 347 345 347 344 341 344 343 339 338 340 346 347 344 342 327 296 286 300 302 261 252 243 270 285 250 291 307 309 298 295 294 298 296 298 303 299 297 300 298 295
321 318 315 314 313 314 319 321 320 318 300 238 146 140 133 96 18 286 259 302 315 328 0 16 25 27 26 28 29 27 25 21 18 21 19 21 25 19 16 10 6 12 358 340 339 341 343 343 339 339 342 343 340 338 339 336 335 336 340 346 346 332 317 289 255 246 251 262 289 293 309 295 267 287 306 313 311 306 299 300 302 302 297 286 300 306 301 298
318 314 314 313 311 312 317 317 313 301 249 188 154 147 123 99 275 280 279 286 326 14 37 39 36 32 29 28 28 25 23 20 18 18 16 15 16 14 14 6 4 12 351 340 344 340 336 337 337 335 337 339 335 333 333 328 327 325 327 344 353 335 332 298 272 280 272 279 307 305 309 293 282 297 314 315 316 312 304 305 305 303 296 289 301 305 300 298
310 311 314 314 311 310 313 307 296 276 226 178 161 150 116 37 271 259 262 327 39 70 66 50 43 36 30 27 26 23 20 19 17 15 10 8 8 8 6 2 2 2 353 352 351 336 326 324 333 333 329 329 330 329 326 321 320 315 315 331 308 271 230 266 288 300 289 297 299 294 290 277 284 307 316 314 318 314 307 312 309 304 299 298 302 300 297 296
304 309 312 311 307 304 300 288 270 248 208 182 173 154 117 330 289 237 221 92 107 114 80 54 43 31 29 28 22 18 18 17 14 10 5 4 5 359 354 357 357 355 357 356 344 332 313 303 322 326 321 322 324 324 322 322 319 311 309 308 289 255 231 257 277 282 285 298 293 272 261 276 292 309 315 317 322 315 313 315 315 313 307 304 305 301 296 294
300 305 307 306 302 294 282 270 249 223 200 187 182 173 242 279 259 232 188 119 119 123 98 53 30 23 23 19 15 13 11 11 9 4 3 2 359 349 347 350 348 349 352 348 342 335 309 303 315 318 317 320 321 321 321 317 307 300 297 287 275 263 257 266 283 287 279 279 280 259 264 284 300 312 316 319 318 315 314 313 315 317 314 313 311 305 298 291
299 301 303 301 292 282 268 253 230 207 193 190 195 198 241 243 221 204 174 131 111 97 90 37 24 28 12 1 6 6 1 4 5 358 355 353 344 340 343 341 341 343 343 340 339 329 315 315 319 321 322 321 319 318 319 314 301 289 279 277 281 275 265 264 287 302 276 260 275 265 270 284 294 304 309 312 313 314 313 311 315 316 317 321 317 308 301 293
299 300 298 294 284 274 257 236 213 196 190 196 207 205 197 198 186 173 163 137 119 92 63 42 28 21 359 351 357 358 351 352 355 351 347 341 332 335 339 336 337 337 335 335 331 324 322 319 321 325 322 320 320 317 317 315 305 290 279 279 281 272 262 251 257 302 297 275 282 275 276 279 272 286 305 311 311 311 309 309 311 311 316 324 320 311 304 299
298 296 291 286 279 263 238 217 202 195 194 196 196 186 183 188 177 166 164 151 142 107 60 52 28 3 351 345 346 348 342 337 338 339 338 331 326 329 331 329 332 331 330 331 326 324 325 312 311 320 319 317 316 315 315 313 308 299 288 279 272 265 259 250 234 245 273 273 288 290 289 280 277 292 307 311 306 302 300 301 303 306 314 321 319 311 304 300
294 291 284 279 272 246 219 207 199 194 194 191 184 181 186 186 176 166 163 159 148 133 95 40 14 0 347 339 337 338 336 328 320 318 321 321 321 324 324 324 328 326 325 326 323 322 320 294 292 311 314 312 313 316 314 308 303 296 287 280 275 269 256 253 253 254 256 258 286 302 296 285 290 302 306 303 301 300 299 299 303 308 314 316 314 307 301 299
287 286 279 270 257 227 211 207 204 199 197 196 193 193 190 184 179 171 169 172 161 164 234 309 322 331 334 333 330 328 328 325 315 308 311 316 320 321 320 322 324 322 321 321 321 319 312 288 287 300 307 308 310 312 307 299 293 289 286 283 282 275 251 248 269 256 241 233 255 275 287 291 299 310 310 308 310 309 309 310 311 313 313 314 312 305 299 298
279 278 272 259 237 215 208 207 206 204 202 202 198 194 188 184 184 185 194 206 218 252 270 287 302 311 317 323 325 322 323 324 316 307 310 315 316 315 316 320 320 318 317 318 318 316 309 294 288 295 306 311 312 309 299 288 283 281 280 278 276 268 250 239 241 255 245 244 259 262 264 290 304 314 311 311 316 314 314 314 313 313 313 316 315 307 302 299
273 269 261 243 221 208 206 209 207 202 200 199 197 196 192 190 194 199 212 227 241 263 272 282 300 307 308 314 319 317 319 320 313 309 312 314 315 314 315 317 316 315 316 314 314 314 310 301 293 297 307 311 311 308 296 281 276 278 283 281 272 263 260 255 252 261 268 260 261 257 250 286 303 312 309 309 312 310 312 312 312 314 316 318 316 309 305 302
260 252 241 225 212 203 205 212 209 199 197 199 200 201 199 198 206 215 227 240 254 270 277 282 292 301 305 308 309 310 313 312 307 310 312 313 315 315 313 314 315 315 314 310 308 307 303 295 290 298 312 316 312 309 293 275 279 289 295 296 290 279 264 255 256 259 269 270 262 223 249 283 298 305 301 304 307 308 310 311 313 314 313 311 307 303 301 299
241 234 228 214 206 201 203 213 210 202 201 203 203 205 207 210 219 229 239 253 264 275 282 286 290 295 300 303 305 307 307 303 302 306 310 312 312 312 312 312 313 313 312 308 305 303 295 286 277 273 277 287 291 294 291 290 292 294 295 296 296 291 273 263 262 248 256 273 263 222 254 284 298 302 300 303 307 308 310 310 309 308 305 304 303 301 299 298
225 219 215 208 205 204 209 214 210 205 204 206 208 210 213 220 229 236 247 261 270 279 285 289 292 294 297 301 304 306 305 304 301 302 308 312 310 311 311 309 310 312 310 307 305 301 291 287 285 274 265 273 286 292 291 289 289 293 297 296 292 288 281 271 257 245 259 271 270 263 267 281 295 302 304 307 311 311 311 310 308 307 307 307 305 301 297 297
219 214 208 205 207 210 215 216 211 209 210 213 217 218 218 228 241 247 257 270 276 284 288 291 296 298 298 301 304 305 307 307 303 302 308 311 310 311 311 309 310 310 308 306 304 299 289 290 294 287 281 288 296 298 296 292 291 295 299 298 294 289 281 264 252 266 276 269 271 286 286 282 290 301 307 312 318 318 314 313 313 313 315 314 312 308 304 303
219 217 213 208 208 213 216 215 215 216 219 222 227 230 231 237 249 259 269 277 282 287 289 293 299 300 299 302 303 303 308 309 305 305 308 310 310 311 310 309 309 308 307 305 302 298 290 291 297 293 289 295 299 299 300 297 296 297 298 299 299 294 283 271 271 282 282 261 267 291 297 291 293 304 314 320 324 322 317 317 317 317 317 316 315 313 310 310
221 222 219 213 215 222 218 215 218 221 224 230 234 240 245 249 257 268 275 281 286 288 290 295 299 299 300 303 302 303 309 309 304 305 310 311 310 310 309 309 308 307 307 304 302 300 292 291 297 293 289 295 299 299 300 299 299 299 299 302 303 297 288 282 283 288 282 270 278 289 292 294 301 312 320 322 323 319 316 315 312 311 311 311 313 313 313 313
224 225 223 218 222 230 224 218 222 226 229 235 240 247 256 261 267 274 278 284 289 291 294 298 299 299 301 303 302 306 311 305 301 305 309 308 307 307 307 306 306 306 305 304 301 298 290 288 293 292 289 295 301 302 302 301 299 298 299 304 305 300 294 286 284 290 286 282 291 296 292 296 308 317 318 318 317 314 311 309 309 309 311 313 316 316 316 315
225 225 225 223 227 231 228 225 228 234 236 240 249 258 264 270 275 279 282 286 289 293 298 299 300 301 302 302 305 309 308 302 302 305 306 305 305 305 304 303 304 303 302 302 300 295 290 287 290 293 292 296 303 307 304 301 297 296 301 307 305 296 296 296 294 297 295 293 300 302 296 300 310 317 315 313 312 312 309 309 310 311 314 317 319 318 316 314
226 227 228 231 232 230 229 229 233 240 244 247 257 265 270 275 280 285 288 289 291 295 299 300 301 302 302 304 308 309 306 304 305 304 303 304 304 303 302 301 302 301 300 299 296 293 291 287 289 292 290 294 300 302 299 301 303 302 304 306 297 287 292 296 296 299 304 307 306 301 299 305 311 312 309 308 309 310 308 309 313 315 318 320 319 317 315 311